AI9T Weather Reports


time (UTC)temp
C
wind
direction
speed
KPH
gust
KPH
rain 1hr
cm
rain 24hr
cm
rain mn
cm
humidity
%
barometer
mb
20260905205003 35 334 1.6 12.9 0.00 0.00 0.00 51 1009.5
20260905204004 35 319 3.2 19.3 0.00 0.00 0.00 50 1009.7
20260905202504 35 331 3.2 19.3 0.00 0.00 0.00 47 1009.7
20260905201503 36 38 3.2 11.3 0.00 0.00 0.00 44 1009.9
20260905201003 36 281 0.0 11.3 0.00 0.00 0.00 44 1009.9
20260905200504 36 261 1.6 9.7 0.00 0.00 0.00 46 1009.9
20260905200004 36 322 4.8 12.9 0.00 0.00 0.00 46 1009.9
20260905194503 36 275 0.0 9.7 0.00 0.00 0.00 46 1009.9
20260905194004 36 251 1.6 9.7 0.00 0.00 0.00 47 1009.8
20260905193504 36 347 0.0 8.0 0.00 0.00 0.00 46 1009.9
20260905193004 36 279 1.6 9.7 0.00 0.00 0.00 45 1010.0
20260905192504 36 277 3.2 11.3 0.00 0.00 0.00 46 1010.0
20260905192004 36 224 1.6 11.3 0.00 0.00 0.00 46 1010.1
20260905191004 35 323 1.6 11.3 0.00 0.00 0.00 46 1010.2
20260905190504 35 317 1.6 11.3 0.00 0.00 0.00 46 1010.2
20260905190003 35 231 1.6 12.9 0.00 0.00 0.00 46 1010.2
20260905185504 35 293 3.2 12.9 0.00 0.00 0.00 46 1010.3
20260905185004 35 332 1.6 11.3 0.00 0.00 0.00 50 1010.4
20260905184503 35 319 4.8 12.9 0.00 0.00 0.00 50 1010.5
20260905183503 35 89 0.0 4.8 0.00 0.00 0.00 49 1010.6
20260905183004 35 316 0.0 4.8 0.00 0.00 0.00 49 1010.6
20260905182504 35 313 0.0 4.8 0.00 0.00 0.00 50 1010.7
20260905182004 35 330 0.0 11.3 0.00 0.00 0.00 52 1010.8
20260905181004 35 313 1.6 8.0 0.00 0.00 0.00 50 1010.9
20260905180504 35 20 0.0 8.0 0.00 0.00 0.00 52 1010.9
20260905175504 35 232 0.0 1.6 0.00 0.00 0.00 49 1010.9
20260905174504 35 230 0.0 4.8 0.00 0.00 0.00 50 1011.1
20260905172503 35 270 0.0 4.8 0.00 0.00 0.00 51 1011.1
20260905171503 35 165 0.0 0.0 0.00 0.00 0.00 56 1011.2
20260905171004 34 171 0.0 0.0 0.00 0.00 0.00 56 1011.2
20260905170503 34 171 0.0 0.0 0.00 0.00 0.00 54 1011.2
20260905170003 34 181 0.0 0.0 0.00 0.00 0.00 54 1011.4
20260905165504 34 184 0.0 1.6 0.00 0.00 0.00 55 1011.4
20260905165004 34 97 0.0 3.2 0.00 0.00 0.00 56 1011.4
20260905164503 33 49 0.0 3.2 0.00 0.00 0.00 57 1011.5
20260905164003 33 47 0.0 0.0 0.00 0.00 0.00 57 1011.6
20260905162504 33 46 0.0 3.2 0.00 0.00 0.00 57 1011.7
20260905162004 33 56 0.0 4.8 0.00 0.00 0.00 59 1011.8
20260905160004 32 74 0.0 0.0 0.00 0.00 0.00 60 1011.7
20260905155504 32 74 0.0 0.0 0.00 0.00 0.00 60 1011.9
20260905154005 32 74 0.0 3.2 0.00 0.00 0.00 63 1011.8
20260905153504 32 73 0.0 1.6 0.00 0.00 0.00 62 1011.8
20260905153004 31 73 0.0 4.8 0.00 0.00 0.00 63 1011.9
20260905152504 31 73 1.6 8.0 0.00 0.00 0.00 66 1012.0
20260905151504 31 85 1.6 8.0 0.00 0.00 0.00 67 1012.2
20260905151004 31 72 0.0 16.1 0.00 0.00 0.00 67 1012.4
20260905145504 31 40 0.0 0.0 0.00 0.00 0.00 65 1012.1
20260905145004 31 34 0.0 0.0 0.00 0.00 0.00 61 1012.1
20260905144504 31 43 0.0 0.0 0.00 0.00 0.00 64 1011.9
20260905144004 31 51 0.0 0.0 0.00 0.00 0.00 67 1011.8
20260905143504 31 84 0.0 0.0 0.00 0.00 0.00 67 1011.9
20260905141503 30 84 0.0 0.0 0.00 0.00 0.00 69 1011.8
20260905141004 30 99 0.0 0.0 0.00 0.00 0.00 69 1011.8
20260905140504 29 99 0.0 0.0 0.00 0.00 0.00 71 1011.8
20260905134504 28 98 0.0 0.0 0.00 0.00 0.00 78 1011.6
20260905133504 28 98 0.0 0.0 0.00 0.00 0.00 79 1011.6
20260905130503 26 98 0.0 0.0 0.00 0.00 0.00 89 1011.9
20260905125004 25 97 0.0 0.0 0.00 0.00 0.00 95 1011.9
20260905124504 25 96 0.0 0.0 0.00 0.00 0.00 96 1011.9
20260905124004 24 96 0.0 0.0 0.00 0.00 0.00 97 1012.1
20260905123004 23 96 0.0 0.0 0.00 0.00 0.00 97 1011.9
20260905121003 22 96 0.0 4.8 0.00 0.00 0.00 97 1011.8
20260905120504 22 96 1.6 8.0 0.00 0.00 0.00 97 1011.8
20260905113004 22 208 0.0 0.0 0.00 0.00 0.00 96 1011.4
20260905112504 22 208 0.0 0.0 0.00 0.00 0.00 96 1011.5
20260905112004 22 208 0.0 0.0 0.00 0.00 0.00 96 1011.5
20260905111504 22 208 0.0 0.0 0.00 0.00 0.00 96 1011.5
20260905110503 22 208 0.0 0.0 0.00 0.00 0.00 96 1011.4
20260905110004 22 208 0.0 0.0 0.00 0.00 0.00 96 1011.4
20260905105504 22 208 0.0 0.0 0.00 0.00 0.00 96 1011.4
20260905105004 22 208 0.0 0.0 0.00 0.00 0.00 96 1011.4
20260905104504 22 208 0.0 0.0 0.00 0.00 0.00 96 1011.3
20260905103504 22 208 0.0 0.0 0.00 0.00 0.00 95 1011.3
20260905102004 22 208 0.0 0.0 0.00 0.00 0.00 95 1011.4
20260905100504 23 208 0.0 0.0 0.00 0.00 0.00 95 1011.4
20260905100004 23 208 0.0 0.0 0.00 0.00 0.00 95 1011.3
20260905095504 23 208 0.0 0.0 0.00 0.00 0.00 95 1011.1
20260905094503 23 208 0.0 0.0 0.00 0.00 0.00 95 1011.2
20260905094003 23 208 0.0 0.0 0.00 0.00 0.00 95 1011.2
20260905093004 23 208 0.0 0.0 0.00 0.00 0.00 95 1011.2
20260905091004 23 208 0.0 0.0 0.00 0.00 0.00 96 1011.2
20260905090503 23 208 0.0 0.0 0.00 0.00 0.00 96 1011.1
20260905085004 23 208 0.0 3.2 0.00 0.00 0.00 96 1011.1
20260905084504 23 208 1.6 3.2 0.00 0.00 0.00 96 1011.1
20260905084004 23 208 0.0 9.7 0.00 0.00 0.00 96 1011.1
20260905083504 23 208 0.0 9.7 0.00 0.00 0.00 96 1011.1
20260905082005 23 210 0.0 9.7 0.00 0.00 0.00 96 1010.9
20260905081504 23 210 0.0 0.0 0.00 0.00 0.00 96 1010.9
20260905081004 23 210 0.0 0.0 0.00 0.00 0.00 96 1010.9
20260905080003 23 210 0.0 0.0 0.00 0.00 0.00 96 1011.0
20260905075503 23 210 0.0 0.0 0.00 0.00 0.00 96 1010.9
20260905074004 23 210 0.0 0.0 0.00 0.00 0.00 96 1011.0
20260905072504 23 210 0.0 0.0 0.00 0.00 0.00 96 1011.1
20260905070004 23 210 0.0 0.0 0.00 0.00 0.00 95 1011.1
20260905065504 23 210 0.0 0.0 0.00 0.00 0.00 95 1011.1
20260905064504 23 210 0.0 0.0 0.00 0.00 0.00 95 1011.2
20260905064004 23 210 0.0 0.0 0.00 0.00 0.00 95 1011.3
20260905062003 24 210 0.0 0.0 0.00 0.00 0.00 95 1011.4
20260905061504 24 210 0.0 0.0 0.00 0.00 0.00 95 1011.4
20260905060504 24 210 0.0 0.0 0.00 0.00 0.00 94 1011.5
20260905055004 24 210 0.0 0.0 0.00 0.00 0.00 94 1011.3
20260905054003 24 210 0.0 0.0 0.00 0.00 0.00 94 1011.4
20260905053503 24 210 0.0 0.0 0.00 0.00 0.00 94 1011.4
20260905053004 25 210 0.0 0.0 0.00 0.00 0.00 94 1011.5
20260905051504 25 210 0.0 0.0 0.00 0.00 0.00 94 1011.6
20260905051004 25 210 0.0 0.0 0.00 0.00 0.00 94 1011.6
20260905044504 25 210 0.0 0.0 0.00 0.00 0.00 93 1011.7
20260905043004 25 210 0.0 0.0 0.00 0.00 0.00 93 1011.7
20260905042503 25 210 0.0 0.0 0.00 0.00 0.00 93 1011.7
20260905041504 25 210 0.0 0.0 0.00 0.00 0.00 92 1011.8
20260905040504 25 210 0.0 0.0 0.00 0.00 0.00 91 1011.7
20260905035004 25 210 0.0 0.0 0.00 0.00 0.00 91 1011.8
20260905034504 25 210 0.0 0.0 0.00 0.00 0.00 90 1011.8
20260905034004 25 210 0.0 0.0 0.00 0.00 0.00 90 1011.9
20260905033505 25 210 0.0 0.0 0.00 0.00 0.00 90 1012.0
20260905033005 25 210 0.0 0.0 0.00 0.00 0.00 89 1012.0
20260905032504 25 210 0.0 0.0 0.00 0.00 0.00 89 1012.0
20260905032004 25 210 0.0 0.0 0.00 0.00 0.00 89 1011.9
20260905031504 26 210 0.0 0.0 0.00 0.00 0.00 89 1011.9
20260905025503 26 210 0.0 0.0 0.00 0.00 0.00 87 1011.9
20260905024504 26 210 0.0 0.0 0.00 0.00 0.00 87 1011.7
20260905024004 26 210 0.0 0.0 0.00 0.00 0.00 87 1011.6
20260905023504 26 210 0.0 0.0 0.00 0.00 0.00 87 1011.5
20260905023004 26 210 0.0 0.0 0.00 0.00 0.00 87 1011.5
20260905022504 26 210 0.0 0.0 0.00 0.00 0.00 86 1011.4
20260905022004 26 210 0.0 0.0 0.00 0.00 0.00 86 1011.4
20260905021504 26 210 0.0 0.0 0.00 0.00 0.00 86 1011.5
20260905021004 26 210 0.0 0.0 0.00 0.00 0.00 86 1011.5
20260905020504 27 210 0.0 0.0 0.00 0.00 0.00 85 1011.5
20260905020004 27 210 0.0 0.0 0.00 0.00 0.00 85 1011.5
20260905013504 27 210 0.0 0.0 0.00 0.00 0.00 84 1011.2
20260905010504 28 210 0.0 0.0 0.00 0.00 0.00 81 1011.1
20260905010004 28 210 0.0 0.0 0.00 0.00 0.00 81 1011.0
20260905005504 28 210 0.0 0.0 0.00 0.00 0.00 79 1010.9
20260905005004 28 210 0.0 0.0 0.00 0.00 0.00 79 1010.9
20260905004504 28 210 0.0 0.0 0.00 0.00 0.00 79 1010.9
20260905004004 28 210 0.0 0.0 0.00 0.00 0.00 77 1010.9
20260905003503 29 210 0.0 0.0 0.00 0.00 0.00 76 1010.8
20260905003004 29 210 0.0 0.0 0.00 0.00 0.00 76 1010.7
20260905002504 30 210 0.0 0.0 0.00 0.00 0.00 76 1010.7
20260905001505 30 210 0.0 0.0 0.00 0.00 0.00 74 1010.7
20260905000503 30 210 0.0 0.0 0.00 0.00 0.00 72 1010.7
20260905000004 31 210 0.0 0.0 0.00 0.00 0.00 70 1010.7
20260904235504 31 210 0.0 0.0 0.00 0.00 0.00 69 1010.7
20260904232504 32 210 0.0 0.0 0.00 0.00 0.00 64 1010.7
20260904231504 32 210 0.0 0.0 0.00 0.00 0.00 62 1010.7
20260904230503 32 210 0.0 0.0 0.00 0.00 0.00 61 1010.7
20260904230004 32 210 0.0 0.0 0.00 0.00 0.00 60 1010.6
20260904225504 33 210 0.0 0.0 0.00 0.00 0.00 59 1010.6
20260904225004 33 210 0.0 0.0 0.00 0.00 0.00 60 1010.5
20260904224504 33 210 0.0 1.6 0.00 0.00 0.00 60 1010.6
20260904223004 33 210 0.0 0.0 0.00 0.00 0.00 55 1010.6
20260904222004 33 210 0.0 0.0 0.00 0.00 0.00 51 1010.6
20260904220503 34 210 0.0 3.2 0.00 0.00 0.00 54 1010.8
20260904215504 34 210 0.0 0.0 0.00 0.00 0.00 51 1010.9
20260904214504 35 210 1.6 3.2 0.00 0.00 0.00 50 1010.9
20260904214004 35 210 0.0 4.8 0.00 0.00 0.00 49 1011.0
20260904213503 35 210 0.0 8.0 0.00 0.00 0.00 47 1011.0
20260904213004 35 211 1.6 8.0 0.00 0.00 0.00 47 1010.9
20260904212503 35 213 1.6 8.0 0.00 0.00 0.00 46 1010.9
20260904212004 35 249 1.6 4.8 0.00 0.00 0.00 45 1011.0
20260904210504 36 237 0.0 1.6 0.00 0.00 0.00 43 1011.3